This demonstration page uses our WeatherBlox Daily Observations layout. Learn more.

Left ArrowRight Arrow

Hourly Observations for February 16, 2022

Temp ( °F °C ) Dew Point ( °F °C ) Humidity (%) Winds ( mph kmh ) Pressure ( in mb ) Visibility ( mi km ) Precip ( " mm )
12:56 am 00:56 Partly Cloudy 46 8 32 0.2 58 58 Calm 29.68 1005 10 16 0.00 0.00
1:56 am 01:56 Mostly Cloudy 43 6.2 33 0.3 66 66 Calm 29.67 1005 10 16 0.00 0.00
2:56 am 02:56 Cloudy 42 5.7 33 0.3 69 69 S 3 6 29.65 1004 10 16 0.00 0.00
3:56 am 03:56 Mostly Clear 40 4.3 33 0.3 75 75 WNW 5 7 29.64 1004 10 16 0.00 0.00
4:56 am 04:56 Mostly Cloudy 38 3.5 31 -0.5 75 75 NW 8 13 29.67 1005 10 16 0.00 0.00
5:56 am 05:56 Mostly Cloudy 38 3.4 23 -5 55 55 N 16 26 29.69 1005 10 16 0.00 0.00
6:56 am 06:56 Mostly Cloudy 36 2 23 -5.2 59 59 NNW 14 22 29.72 1007 10 16 0.00 0.00
7:56 am 07:56 Mostly Cloudy 33 0.6 23 -5.2 65 65 N 16 26 29.76 1008 10 16 0.00 0.00
8:56 am 08:56 Partly Cloudy 32 -0.1 22 -5.7 66 66 N 13 20 29.80 1009 10 16 0.00 0.00
9:56 am 09:56 Mostly Cloudy 32 0 22 -5.4 67 67 N 12 19 29.83 1010 10 16 0.00 0.00
10:56 am 10:56 Partly Cloudy 35 1.8 24 -4.7 62 62 N 16 26 29.85 1011 10 16 0.00 0.00
11:15 am 11:15 Partly Cloudy 37 3 23 -5 56 56 N 14 22 29.85 1011 10 16 0.00 0.00
11:56 am 11:56 Sunny 38 3.4 22 -5.3 53 53 N 16 26 29.87 1012 10 16 0.00 0.00
12:56 pm 12:56 Sunny 39 3.7 21 -6.3 48 48 N 12 19 29.85 1011 10 16 0.00 0.00
1:56 pm 13:56 Mostly Cloudy 41 5 20 -6.9 42 42 N 12 19 29.85 1011 10 16 0.00 0.00
2:56 pm 14:56 Sunny 42 5.4 20 -6.8 41 41 NNE 9 15 29.87 1012 10 16 0.00 0.00
3:56 pm 15:56 Sunny 41 4.8 18 -8 39 39 N 13 20 29.90 1013 10 16 0.00 0.00
4:56 pm 16:56 Mostly Cloudy 38 3.5 15 -9.2 39 39 N 14 22 29.91 1013 10 16 0.00 0.00
5:56 pm 17:56 Cloudy 37 2.7 15 -9.6 40 40 N 16 26 29.95 1014 10 16 0.00 0.00
6:56 pm 18:56 Mostly Cloudy 34 0.9 13 -10.6 42 42 N 17 28 30.00 1016 10 16 0.00 0.00
7:56 pm 19:56 Cloudy 31 -0.5 10 -12.2 41 41 N 18 30 30.04 1017 10 16 0.00 0.00
8:56 pm 20:56 Mostly Cloudy 30 -1.1 10 -12.4 42 42 N 20 31 30.11 1020 10 16 0.00 0.00
9:56 pm 21:56 Cloudy 29 -1.9 8 -13.1 42 42 N 16 26 30.16 1021 10 16 0.00 0.00
10:56 pm 22:56 Cloudy 27 -2.6 7 -14.1 41 41 NW 15 24 30.19 1022 10 16 0.00 0.00
11:56 pm 23:56 Cloudy 26 -3.1 9 -12.8 48 48 NW 18 30 30.20 1023 10 16 0.00 0.00

Powered by AerisWeather